Juneau, WI

1:57 AM CST on December 10, 2019 (GMT -0600)
Dodge County

Weather History for KUNU - October, 2019

Change the Weather History Date:

Wednesday, October 23, 2019

  Actual Average Record
Temperature  
Mean Temperature 44 °F -  
Max Temperature 52 °F 54 °F 75 °F (1975)
Min Temperature 35 °F 39 °F 24 °F (1981)
Degree Days  
Heating Degree Days 22    
Moisture  
Dew Point 32 °F    
Average Humidity 67    
Maximum Humidity 97    
Minimum Humidity 37    
Precipitation  
Precipitation 0.07 in - - ()
Sea Level Pressure  
Sea Level Pressure 29.87 in    
Wind  
Wind Speed 9 mph ()    
Max Wind Speed 16 mph    
Max Gust Speed 21 mph    
Visibility 9.7 miles    
Events Rain    
Averages and records for this station are not official NWS values.
T = Trace of Precipitation, MM = Missing Value Source: Averaged Metar Reports

Daily Weather History Graph

Daily Weather History Graph

Search for Another Location

Airport or City:

Astronomy

Oct. 23, 2019 Rise Set
Actual Time 7:18 AM CDT 5:59 PM CDT
Civil Twilight 6:49 AM CDT 6:28 PM CDT
Nautical Twilight 6:15 AM CDT 7:01 PM CDT
Astronomical Twilight 5:42 AM CDT 7:34 PM CDT
Moon 1:23 AM CDT (10/23) 4:01 PM CDT (10/23)
Length of Visible Light 11h 39m
Length of Day
10h 40m
Waning Crescent, 26% of the Moon is Illuminated
Oct 23
Waning Crescent
Oct 27
New
Nov 4
First Quarter
Nov 12
Full
Nov 19
Last Quarter

Hourly Weather History & Observations

Time (CDT) Temp. Windchill Dew Point Humidity Pressure Visibility Wind Dir Wind Speed Gust Speed Precip Events Conditions
12:35 AM 44.1 °F 37.4 °F 32.5 °F 64% 29.69 in 10.0 mi SW 13.8 mph - N/A   Overcast
12:55 AM 43.7 °F 37.7 °F 32.4 °F 64% 29.70 in 10.0 mi SW 11.5 mph - N/A   Overcast
1:15 AM 43.9 °F 37.9 °F 32.2 °F 63% 29.70 in 10.0 mi SW 11.5 mph - N/A   Overcast
1:35 AM 43.5 °F 37.1 °F 32.2 °F 64% 29.70 in 10.0 mi SW 12.7 mph - N/A   Overcast
1:55 AM 43.3 °F 36.1 °F 32.0 °F 64% 29.71 in 10.0 mi SW 15.0 mph - N/A   Overcast
2:35 AM - - - N/A% 29.72 in 10.0 mi SW 11.5 mph - N/A   Overcast
2:55 AM 41.9 °F 36.3 °F 32.0 °F 68% 29.72 in 10.0 mi SW 9.2 mph - N/A   Overcast
3:15 AM 40.6 °F 34.8 °F 32.0 °F 71% 29.72 in 10.0 mi SW 9.2 mph - N/A   Mostly Cloudy
3:35 AM 39.4 °F 33.2 °F 32.0 °F 75% 29.72 in 10.0 mi SSW 9.2 mph - N/A   Scattered Clouds
3:55 AM 38.8 °F 31.2 °F 32.0 °F 76% 29.73 in 10.0 mi SW 12.7 mph - N/A   Clear
4:15 AM 37.9 °F 30.5 °F 32.0 °F 79% 29.73 in 10.0 mi SW 11.5 mph - N/A   Clear
4:35 AM 37.9 °F 30.0 °F 31.8 °F 79% 29.75 in 10.0 mi SW 12.7 mph - N/A   Clear
4:55 AM 37.8 °F 29.4 °F 31.6 °F 79% 29.75 in 10.0 mi SW 13.8 mph - N/A   Clear
5:15 AM 37.4 °F 29.8 °F 31.6 °F 80% 29.77 in 10.0 mi SW 11.5 mph 18.4 mph N/A   Clear
5:35 AM 37.4 °F 28.9 °F 31.5 °F 79% 29.77 in 10.0 mi SW 13.8 mph - N/A   Clear
6:15 AM 36.5 °F 28.7 °F 31.5 °F 82% 29.79 in 10.0 mi SW 11.5 mph - N/A   Clear
6:35 AM 36.1 °F 28.2 °F 31.1 °F 82% 29.80 in 10.0 mi SW 11.5 mph - N/A   Clear
6:55 AM 35.8 °F 28.8 °F 31.1 °F 83% 29.80 in 10.0 mi SW 9.2 mph - N/A   Clear
7:15 AM 35.6 °F 27.5 °F 31.1 °F 84% 29.82 in 10.0 mi SW 11.5 mph 16.1 mph N/A   Clear
7:35 AM 35.6 °F 28.0 °F 31.1 °F 84% 29.82 in 10.0 mi SW 10.4 mph 17.3 mph N/A   Clear
7:55 AM 36.0 °F 28.0 °F 31.1 °F 82% 29.83 in 10.0 mi SW 11.5 mph - N/A   Clear
8:15 AM 36.5 °F 29.2 °F 31.5 °F 82% 29.84 in 10.0 mi SW 10.4 mph 17.3 mph N/A   Clear
8:35 AM 37.0 °F 29.3 °F 31.8 °F 81% 29.85 in 10.0 mi SW 11.5 mph - N/A   Clear
8:55 AM 37.9 °F 30.5 °F 31.8 °F 79% 29.85 in 10.0 mi SW 11.5 mph - N/A   Clear
9:15 AM 39.2 °F 31.6 °F 32.0 °F 75% 29.87 in 10.0 mi WSW 12.7 mph - N/A   Clear
9:35 AM 40.5 °F 32.8 °F 32.2 °F 72% 29.87 in 10.0 mi WSW 13.8 mph - N/A   Clear
9:55 AM 41.5 °F 33.8 °F 32.4 °F 70% 29.88 in 10.0 mi SW 15.0 mph - N/A   Clear
10:15 AM 42.8 °F 36.2 °F 32.5 °F 67% 29.88 in 10.0 mi WSW 12.7 mph - N/A   Clear
10:35 AM 44.1 °F 36.8 °F 33.3 °F 66% 29.89 in 10.0 mi SW 16.1 mph - N/A   Clear
10:55 AM 44.8 °F 38.3 °F 33.1 °F 64% 29.89 in 10.0 mi WSW 13.8 mph - N/A   Clear
11:15 AM 46.0 °F 40.6 °F 32.9 °F 60% 29.89 in 10.0 mi WSW 11.5 mph 20.7 mph N/A   Clear
11:35 AM 46.9 °F - 32.2 °F 57% 29.89 in 10.0 mi WSW 16.1 mph - N/A   Clear
11:55 AM 48.2 °F - 32.4 °F 54% 29.89 in 10.0 mi WSW 15.0 mph 20.7 mph N/A   Clear
12:15 PM 48.7 °F - 32.2 °F 53% 29.90 in 10.0 mi WSW 10.4 mph 18.4 mph N/A   Clear
12:35 PM 49.5 °F - 31.8 °F 51% 29.90 in 10.0 mi WSW 12.7 mph 19.6 mph N/A   Clear
12:55 PM 50.4 °F - 30.4 °F 46% 29.90 in 10.0 mi SW 16.1 mph 19.6 mph N/A   Clear
1:15 PM 50.7 °F - 30.9 °F 47% 29.89 in 10.0 mi WSW 15.0 mph 18.4 mph N/A   Clear
1:35 PM 50.5 °F - 29.3 °F 44% 29.89 in 10.0 mi SW 15.0 mph 20.7 mph N/A   Clear
1:55 PM 51.3 °F - 29.5 °F 43% 29.88 in 10.0 mi WSW 11.5 mph 18.4 mph N/A   Clear
2:15 PM 52.0 °F - 27.3 °F 39% 29.87 in 10.0 mi WSW 12.7 mph 17.3 mph N/A   Clear
2:35 PM 52.7 °F - 27.0 °F 37% 29.87 in 10.0 mi WSW 9.2 mph - N/A   Clear
2:55 PM 52.2 °F - 27.5 °F 39% 29.87 in 10.0 mi WSW 10.4 mph 18.4 mph N/A   Clear
3:15 PM 52.5 °F - 27.0 °F 37% 29.87 in 10.0 mi SW 4.6 mph - N/A   Scattered Clouds
3:35 PM 50.9 °F - 28.0 °F 41% 29.88 in 10.0 mi Calm Calm - N/A   Scattered Clouds
3:55 PM 52.5 °F - 28.6 °F 40% 29.88 in 10.0 mi WSW 6.9 mph - N/A   Mostly Cloudy
4:15 PM 52.0 °F - 28.9 °F 41% 29.88 in 10.0 mi WSW 3.5 mph - N/A   Overcast
4:35 PM 51.1 °F - 27.5 °F 40% 29.89 in 10.0 mi SW 6.9 mph - N/A   Mostly Cloudy
4:55 PM 50.5 °F - 26.6 °F 39% 29.88 in 10.0 mi Calm Calm - N/A   Mostly Cloudy
5:15 PM 50.9 °F - 27.0 °F 40% 29.90 in 10.0 mi Calm Calm - N/A   Overcast
5:35 PM 49.5 °F - 29.5 °F 46% 29.91 in 10.0 mi Calm Calm - N/A   Overcast
5:55 PM 48.9 °F - 30.7 °F 50% 29.92 in 10.0 mi Calm Calm - N/A   Overcast
6:15 PM 48.6 °F - 30.4 °F 50% 29.93 in 10.0 mi Calm Calm - N/A   Overcast
6:35 PM 49.1 °F - 28.6 °F 45% 29.95 in 10.0 mi Calm Calm - N/A   Overcast
7:15 PM 48.4 °F - 30.0 °F 49% 29.97 in 10.0 mi Calm Calm - N/A Rain Light Rain
7:35 PM 44.4 °F 42.0 °F 34.0 °F 67% 29.99 in 7.0 mi West 4.6 mph 17.3 mph 0.01 in Rain Rain
7:55 PM 42.8 °F 40.1 °F 36.0 °F 77% 30.00 in 10.0 mi WSW 4.6 mph - 0.02 in Rain Light Rain
8:15 PM 42.1 °F - 36.5 °F 81% 30.01 in 10.0 mi Calm Calm - 0.01 in Rain Light Rain
8:35 PM 41.4 °F - 37.2 °F 85% 30.01 in 7.0 mi Calm Calm - 0.02 in Rain Light Rain
8:55 PM 41.0 °F - 38.5 °F 91% 30.00 in 10.0 mi Calm Calm - 0.03 in Rain Rain
9:15 PM 40.6 °F - 38.8 °F 93% 30.00 in 10.0 mi Calm Calm - 0.01 in   Drizzle
9:35 PM 40.6 °F - 39.6 °F 96% 30.00 in 7.0 mi Calm Calm - 0.02 in Rain Heavy Rain
9:55 PM 40.6 °F - 39.4 °F 95% 30.01 in 7.0 mi Calm Calm - 0.02 in   Drizzle
10:15 PM 40.3 °F - 39.2 °F 96% 30.01 in 5.0 mi Calm Calm - N/A   Drizzle
10:35 PM 40.1 °F - 39.2 °F 97% 30.01 in 10.0 mi Calm Calm - N/A   Light Drizzle
10:55 PM 40.1 °F - 39.0 °F 96% 30.02 in 10.0 mi Calm Calm - N/A Rain Light Rain
11:15 PM 40.1 °F - 39.4 °F 97% 30.02 in 10.0 mi Calm Calm - N/A   Overcast
11:55 PM 40.1 °F - 39.4 °F 97% 30.03 in 10.0 mi Calm Calm - N/A   Overcast